Погода в Смаре

Марокко     26°43′06″N   11°38′15″W
темп.,
°C
ветер,
м/с
пор.,
м/с
влажн.,
%
обл.,
%
осадки,
мм/ч
давл.,
гПа
погр.,
м
14 июня, пн
пн1401:00+20с697433 0.0 1019406
04:00+18ссв59849 0.0 1017355
07:00+18с51086100 0.0 1018377
10:00+23ссв795671 0.0 1019596
13:00+31с78235 0.0 1017954
16:00+35с88172 0.0 10151182
19:00+32с98220 0.0 1014931
22:00+24ссв68440 0.0 1017346
15 июня, вт
вт1501:00+20с586439 0.0 1017336
04:00+19с487499 0.0 1015294
07:00+18с367621 0.0 1016273
10:00+23ссв565076 0.0 1016448
13:00+32с552091 0.0 1014819
16:00+36ссз661510 0.0 10121311
19:00+33ссз872251 0.0 10131033
22:00+24с774217 0.0 1015394
16 июня, ср
ср1601:00+21с576268 0.0 1016316
04:00+20с4665100 0.0 1015360
07:00+18с59778 0.0 1015357
10:00+22с685556 0.0 1016634
13:00+30с662696 0.0 10151071
16:00+33ссз871965 0.0 10131342
19:00+29с98291 0.0 10141076
22:00+22с79510 0.0 1016555
17 июня, чт
чт1701:00+19с69640 0.0 1017473
04:00+18с510720 0.0 1016454
07:00+17ссз59810 0.0 1016367
10:00+21с79590 0.0 1016757
13:00+28ссз78340 0.0 10151328
16:00+30ссз98280 0.0 10141804
19:00+27с99350 0.0 10151434
22:00+21с79600 0.0 1017605
18 июня, пт
пт1801:00+19ссз69780 0.0 1018532
04:00+17ссз48851 0.0 1016424
07:00+17ссз511899 0.0 1016390
10:00+21с89622 0.0 1016897
13:00+27с89375 0.0 10151449
16:00+29ссз1093013 0.0 10141717
19:00+25с109411 0.0 10151329
22:00+19с89580 0.0 1018739